Other Public Products
Issued by NWS Grand Forks, ND

Home | Current Version | Previous Version | Text Only | Print | Product List | Glossary Off
Versions: 1 2 3 4 5 6 7 8 9 10 11 12 13 14 15 16 17 18 19 20 21 22 23 24 25 26 27 28 29 30 31 32 33 34 35 36 37 38 39 40 41 42 43 44 45 46 47 48 49 50

000
FPUS83 KFGF 191810
OPUFGF
PRAIRIE TO PINES WEATHER ROUNDUP
NATIONAL WEATHER SERVICE EASTERN NORTH DAKOTA/GRAND FORKS ND
100 PM CDT FRI SEP 19 2014

 **SATELLITE DATA USED TO AUGMENT SKY COVER AT AUTOMATED STATIONS**
 *****  WEATHER ACROSS EASTERN NORTH DAKOTA  *****

CITY           SKY/WX    TMP DP  RH WIND       PRES   REMARKS
GRAND FORKS    CLOUDY    68  65  90 S14       29.53F
6HR MIN TEMP:  63; 6HR MAX TEMP:  68; 6HR PCP:  0.10;

GRAND FORKS AF CLOUDY    70  68  92 S12       29.53S
GRAND CITY NWS   N/A     68 N/A N/A S10         N/A
BUXTON         NOT AVBL
DEVILS LAKE    SUNNY     73  61  64 W16       29.54R
6HR MIN TEMP:  64; 6HR MAX TEMP:  73; 6HR PCP:  0.03;

FARGO          LGT RAIN  69  63  81 S14       29.61R
6HR MIN TEMP:  62; 6HR MAX TEMP:  69; 6HR PCP: TRACE;

WAHPETON ARPT  CLOUDY    66  59  77 S10       29.65S
$$

 *****  WEATHER ACROSS CENTRAL AND WESTERN NORTH DAKOTA  *****

CITY           SKY/WX    TMP DP  RH WIND       PRES   REMARKS
JAMESTOWN      PTSUNNY   77  63  61 W14       29.58F
6HR MIN TEMP:  63; 6HR MAX TEMP:  77; 6HR PCP:  0.01;

BISMARCK       SUNNY     82  56  40 W7        29.65R
6HR MIN TEMP:  65; 6HR MAX TEMP:  82; 6HR PCP:  0.01;

MINOT          SUNNY     80  48  32 SW21G28   29.56F
6HR MIN TEMP:  64; 6HR MAX TEMP:  80; 6HR PCP: TRACE;

MINOT AFB      MOSUNNY   75  52  43 NW16      29.56S
GARRISON         N/A     79  51  37 W15G28    29.61S
6HR MIN TEMP:  63; 6HR MAX TEMP:  79; 6HR PCP:  0.01;

WILLISTON      SUNNY     78  49  35 W21G32    29.64R
6HR MIN TEMP:  59; 6HR MAX TEMP:  78;

DICKINSON      SUNNY     77  48  35 W17G26    29.72R
6HR MIN TEMP:  61; 6HR MAX TEMP:  78;

HETTINGER      MOSUNNY   78  48  34 W21       29.76S
6HR MIN TEMP:  58; 6HR MAX TEMP:  79;

$$

 *****  OTHER OBSERVATIONS NORTHEAST NORTH DAKOTA  *****

CITY           SKY/WX    TMP DP  RH WIND       PRES   REMARKS
WALHALLA       NOT AVBL
LANGDON        FAIR      75  59  57 SW7       29.52R
CAVALIER       FAIR      73  63  68 SW3       29.49R
GRAFTON        FAIR      70  66  88 S12       29.50S
CANDO          FAIR      75  57  53 SW12      29.54S
FORT TOTTEN    NOT AVBL
ROLLA          FAIR      75  55  50 W10       29.53F
RUGBY          FAIR      75  59  57 W13G21    29.55R
 ***** THE ABOVE OBSERVATIONS ARE NON NWS ARE NOT QUALITY
        CONTROLLED AND MAY MIS-REPORT RAIN FOR SNOW...
$$

 *****  OTHER OBSERVATIONS SOUTHEAST NORTH DAKOTA *****

CITY           SKY/WX    TMP DP  RH WIND       PRES   REMARKS
COOPERSTOWN    NOT AVBL
VALLEY CITY    FAIR      73  72  94 SW16      29.59F
OAKES            N/A     68  66  94 SW16      29.64R
GWINNER        MOCLDY    70  64  83 SW15      29.63S
BUFFALO        NOT AVBL
WYNDMERE         N/A     72  64  78 SW10        N/A
 ***** THE ABOVE OBSERVATIONS ARE NON NWS ARE NOT QUALITY
       CONTROLLED AND MAY MIS-REPORT RAIN FOR SNOW...
$$

  *****  WEATHER ACROSS NORTHERN MINNESOTA  *****

CITY           SKY/WX    TMP DP  RH WIND       PRES   REMARKS
FLAG ISLAND    LGT RAIN  61  59  94 SW15      29.52S
WARROAD        LGT RAIN  63  59  88 SW13G20   29.55F
ROSEAU         RAIN      63  57  82 S14       29.51F
HALLOCK        CLOUDY    68  64  88 S14G20    29.50R
THF RVR FALLS  CLOUDY    63  61  94 SW10      29.59F
6HR MIN TEMP:  63; 6HR MAX TEMP:  64; 6HR PCP:  0.06;

HALSTAD          N/A     68  63  84 S12         N/A
FOSSTON        CLOUDY    61  61 100 S17       29.65R FOG
BAUDETTE       RAIN      62  60  93 SW10      29.56F FOG
6HR MIN TEMP:  59; 6HR MAX TEMP:  62; 6HR PCP:  0.51;

WASKISH        LGT RAIN  63  61  94 CALM      29.61S
CROOKSTON      LGT RAIN  64  64 100 S15       29.56F
$$
  *****  WEATHER ACROSS CENTRAL AND WEST MINNESOTA  *****

CITY           SKY/WX    TMP DP  RH WIND       PRES   REMARKS
BEMIDJI        DRIZZLE   63  60  91 SW12      29.63S
PARK RAPIDS    CLOUDY    63  60  90 S13       29.68S
6HR MIN TEMP:  59; 6HR MAX TEMP:  63; 6HR PCP:  0.01;

WADENA         CLOUDY    63  59  88 S9        29.67F
DETROIT LAKES  LGT RAIN  63  61  94 S12       29.66F
MOORHEAD       CLOUDY    68  66  94 S9        29.62S
FERGUS FALLS   CLOUDY    64  59  82 SW10      29.66S
ELBOW LAKE     LGT RAIN  63  62  97 S13       29.67S
6HR MIN TEMP:  60; 6HR MAX TEMP:  63;

MORRIS MN      CLOUDY    66  64  94 S10       29.67S FOG
STAPLES        CLOUDY    61  59  94 S22       29.67F FOG
WHEATON        LGT RAIN  64  61  88 S8        29.67S
$$
  *****  WEATHER ELSEWHERE ACROSS MINNESOTA  *****

CITY           SKY/WX    TMP DP  RH WIND       PRES   REMARKS
DULUTH         CLOUDY    62  54  74 SW16G25   29.73S
6HR MIN TEMP:  55; 6HR MAX TEMP:  62; 6HR PCP: TRACE;

INTRNTL FALLS  LGT RAIN  60  58  92 SW8G17    29.60F
6HR MIN TEMP:  57; 6HR MAX TEMP:  62; 6HR PCP:  0.04;

ELY            LGT RAIN  57  55  94 SW9       29.68R
CLOQUET        CLOUDY    61  54  77 S9G16     29.73F
BRAINERD       CLOUDY    59  58  96 SW13      29.72S FOG
6HR MIN TEMP:  57; 6HR MAX TEMP:  60; 6HR PCP: TRACE;

HIBBING        LGT RAIN  60  55  83 SW8G17    29.70S
6HR MIN TEMP:  58; 6HR MAX TEMP:  60; 6HR PCP:  0.01;

ALEXANDRIA     CLOUDY    62  61  96 S10       29.71S FOG
6HR MIN TEMP:  60; 6HR MAX TEMP:  63; 6HR PCP: TRACE;

SAINT CLOUD    CLOUDY    64  60  87 S14       29.72F FOG
6HR MIN TEMP:  62; 6HR MAX TEMP:  65; 6HR PCP: TRACE;

MINNEAPOLIS    CLOUDY    72  59  63 S16G25    29.74F
6HR MIN TEMP:  57; 6HR MAX TEMP:  72;

$$

  *****  WEATHER ACROSS SOUTH DAKOTA  *****

CITY           SKY/WX    TMP DP  RH WIND       PRES   REMARKS
SIOUX FALLS    MOSUNNY   81  64  56 SW15G23   29.71R
6HR MIN TEMP:  63; 6HR MAX TEMP:  81; 6HR PCP: TRACE;

BROOKINGS      NOT AVBL
WATERTOWN      CLOUDY    72  64  76 SW14      29.68R
6HR MIN TEMP:  59; 6HR MAX TEMP:  72;

HURON          PTSUNNY   79  64  60 W8        29.67S
6HR MIN TEMP:  62; 6HR MAX TEMP:  79;

SISSETON         N/A     70  66  87 W9        29.64S
ABERDEEN       CLOUDY    71  64  78 W10       29.66S
6HR MIN TEMP:  62; 6HR MAX TEMP:  71;

MITCHELL       MOSUNNY   81  66  60 SW8       29.69S
PIERRE         CLOUDY    83  55  38 W18G24    29.71S
6HR MIN TEMP:  59; 6HR MAX TEMP:  84;

MOBRIDGE       MOSUNNY   78  61  55 NW10      29.66R
RAPID CITY     PTSUNNY   81  50  33 N12G21    29.83F
6HR MIN TEMP:  59; 6HR MAX TEMP:  83;

$$

  *****  SOME WEATHER IN NEARBY STATES *****

CITY           SKY/WX    TMP DP  RH WIND       PRES   REMARKS
GLASGOW MT     MOSUNNY   73  49  42 NW16      29.75R
6HR MIN TEMP:  53; 6HR MAX TEMP:  73;

GREAT FALLS MT PTSUNNY   71  44  37 W20G28    29.91S
6HR MIN TEMP:  57; 6HR MAX TEMP:  71;

CHEYENNE WY    MOSUNNY   82  41  23 W9G21     30.05F
6HR MIN TEMP:  55; 6HR MAX TEMP:  83;

SCOTTSBLUFF NE SUNNY     83  51  33 MISG      29.92S
6HR MIN TEMP:  58; 6HR MAX TEMP:  83;

OMAHA NE       MOSUNNY   77  65  66 S17       29.88F
6HR MIN TEMP:  63; 6HR MAX TEMP:  77;

DES MOINES IA  PTSUNNY   77  62  59 S18       29.95F
6HR MIN TEMP:  56; 6HR MAX TEMP:  77;

DAVENPORT IA   SUNNY     74  52  46 S13G24    30.05F
6HR MIN TEMP:  50; 6HR MAX TEMP:  74;

CHICAGO IL     MOSUNNY   72  46  39 S20G26    30.11F
6HR MIN TEMP:  54; 6HR MAX TEMP:  72;

EAU CLAIRE WI  PTSUNNY   69  55  60 S18G36    29.83F
6HR MIN TEMP:  54; 6HR MAX TEMP:  71;

LA CROSSE WI   MOSUNNY   72  55  55 S23G31    29.91F
6HR MIN TEMP:  56; 6HR MAX TEMP:  73;

$$

  *****  SOME NATIONAL WEATHER *****

CITY           SKY/WX    TMP DP  RH WIND       PRES   REMARKS
LA GUARDIA NY  MOSUNNY   62  44  51 NE13      30.35S
6HR MIN TEMP:  55; 6HR MAX TEMP:  63;



USA.gov is the U.S. government's official web portal to all federal, state and local government web resources and services.